Vertical_Velocity
-0 0 1 2 1 -0 1 2 1 0 -3 1 1 -0 1 0 1 -4 1 1 -0 -1 -1 -2 0 -0 0 -0 -1 -1 -2 -2 -1 -1 -1 -1 -0 -0 -0 -1 0 1 -1 -1 -1 -2 -0 1 0
1 -0 1 2 -2 -1 3 2 -3 -1 -1 1 0 1 -2 -2 -0 1 1 0 1 -0 -1 -1 -0 -0 -0 1 -1 -0 0 1 2 1 0 -0 0 -0 -0 -1 -1 -0 1 -1 -1 -1 -1 -1 -0
0 0 0 -5 -4 0 6 -0 -2 0 -1 0 -1 1 2 -0 -0 1 0 1 -0 -1 -0 0 -0 -0 -1 3 -1 0 -0 -0 -1 -0 0 -1 -0 -0 -0 -1 -1 -0 -2 -1 -1 -0 0 0 -1
-0 -2 -1 -6 2 2 4 -2 -2 2 -1 1 1 -1 0 -0 -0 1 1 0 0 -1 -0 0 -1 -2 -0 -1 -1 -1 -0 -1 -1 -2 -2 -2 -2 -1 -1 -1 -1 -1 -0 -0 -0 -0 -1 -1 -0
-5 2 -5 -1 6 4 2 -1 -2 1 -1 1 -1 0 -0 -1 1 2 2 0 -1 1 0 -0 -1 -1 -2 -1 -2 -2 -1 -0 -1 -1 -1 -2 -2 -1 -1 -1 -0 -1 -0 -1 -1 -1 -1 -1 -1
-10 -2 -5 -1 9 2 2 -0 -2 2 1 1 -1 0 -1 1 0 1 -0 0 1 1 -0 -0 -1 -1 -1 -1 -1 -2 -1 0 -1 -1 -1 -1 -1 -1 -0 -1 -1 -1 -1 -1 -1 -2 -1 -1 -2
-3 -2 5 4 8 -2 4 -1 -0 -1 0 -1 1 -2 -1 3 2 -1 -0 -1 -1 -0 1 1 -1 -0 -0 -1 -1 -1 -1 -0 -0 -0 -0 -0 -1 -1 -1 -0 -1 -1 -1 -1 -1 -2 -1 -2 -1
2 -0 -5 2 -1 11 -0 1 -0 -1 -3 3 2 -2 -5 1 -0 -1 -0 0 0 0 -1 -1 -0 -1 -2 -1 -1 -1 -1 -1 -1 -1 -1 -1 -1 -1 -1 -1 -1 -1 -1 -1 -1 -0 -1 -1 -1
9 -10 -7 7 -1 11 14 1 0 3 1 -1 1 1 1 1 -0 1 -0 -0 0 -1 -1 -2 -2 -1 -2 -1 -1 -1 -1 -2 -2 -1 -1 -2 -1 -1 -1 -0 -1 -2 -0 -1 -2 -1 -1 -1 0
-9 -6 6 4 6 6 3 1 -4 -1 -1 -2 0 -0 1 1 -0 -1 -2 -2 -1 -2 -1 -1 -1 -1 -1 -0 -1 -1 -2 -2 -2 -1 -1 -1 -1 -2 -2 -0 -0 -1 -1 -2 -2 -2 -1 -0 -0
-4 -0 0 12 7 -0 -3 0 -0 -1 0 -1 -1 0 1 1 -0 -1 -2 -2 -1 -1 -0 -2 -1 0 -0 -1 -1 -0 -2 -1 -2 0 -2 -1 -1 -1 -1 -1 -0 -2 -0 -1 -1 -1 -1 -1 -1
-5 -5 6 7 5 -2 0 -0 3 -1 -8 -0 1 -0 0 1 -1 -1 -2 -1 -0 -1 -3 -2 -1 -1 -0 -1 -0 -0 -1 -1 -1 -1 -0 -1 -1 0 -0 -1 -2 -1 -1 -1 -0 -1 -2 -1 -2
-2 6 5 2 3 -3 -1 -1 -4 5 -5 1 -0 1 0 -2 0 -1 -2 -1 -0 -1 -1 -1 -0 -2 -1 -0 0 -0 -1 -1 -2 -0 0 0 -1 -0 0 -0 1 -1 -0 -1 -1 -1 -1 -1 -2
6 4 6 2 0 -4 -2 0 -6 6 -1 -6 1 -2 1 2 -2 2 1 -1 -0 -3 -2 -1 -1 1 1 0 2 1 -0 -0 0 -0 -1 -1 -1 -0 1 -1 1 -1 1 -1 -1 -1 -1 -0 -1
0 -0 7 2 -0 -3 -3 -7 4 14 -9 -4 0 0 0 2 1 2 -1 -0 -1 -2 -1 0 1 0 1 -1 -1 -2 -1 -1 1 -0 1 1 -0 -1 -0 -0 0 -2 -0 0 -1 -1 -1 -1 -1
-2 1 -0 1 -1 -1 -2 13 6 2 0 1 -2 -1 1 1 1 1 0 -2 -1 -2 -0 -3 1 0 -2 0 -2 -1 1 -1 0 -1 -1 1 0 -0 -1 -1 -1 -2 0 0 -1 -1 -1 -1 -1
-7 0 1 1 0 -7 -8 14 5 4 1 0 -2 -1 1 -2 0 -0 -7 -2 -3 -1 -2 -3 -5 -0 1 2 -1 -0 -1 2 1 1 3 1 2 3 -0 -1 -3 -2 -0 0 2 0 1 -1 -1
-1 -2 3 0 -1 -1 -5 6 4 1 2 2 1 -4 -3 -1 -3 -4 -1 0 -1 2 3 3 -0 3 2 -1 2 3 -2 4 -1 2 3 -2 1 1 -2 0 -1 -1 0 -0 2 -0 -2 2 1
1 1 7 3 1 -1 -5 1 -1 8 1 -1 -6 -1 3 -2 -4 -4 -2 -2 2 3 1 3 -0 6 -2 -4 0 0 3 -2 1 0 -1 0 3 4 2 3 1 1 3 0 0 1 3 0 0
3 1 -1 2 4 -2 -4 3 6 -1 -0 0 2 2 -2 -3 -5 -3 -3 -2 -1 -0 1 0 2 2 1 -1 3 -1 -2 3 1 -2 4 4 2 -0 2 2 4 1 -1 -0 1 -0 -1 0 -1
1 1 2 -1 -0 -2 0 8 -2 -4 -4 -3 1 -1 -1 -2 -4 -4 -3 -1 1 -0 -3 0 -1 2 -0 -0 -4 1 2 5 3 5 3 2 -2 -1 -2 0 2 -1 -1 3 -2 -0 1 -2 -3
8 -1 -0 2 -0 -6 3 -4 -5 -4 -4 -3 -2 -2 -2 -4 -3 -4 -3 -2 -1 -0 -1 -0 -2 -1 1 2 1 1 -1 1 9 3 0 1 -0 -1 -1 1 10 4 1 -3 2 -2 4 -5 6
-3 3 2 0 -2 -2 -0 5 -6 -1 -4 -4 -1 -1 -3 -3 -1 -2 -1 -3 -2 -2 -1 -2 0 -0 3 3 1 2 2 0 4 2 3 0 2 1 0 1 -1 0 7 6 3 0 2 0 -8
3 -1 1 0 -1 -4 -0 2 -0 -3 -4 -4 -0 -0 -1 -3 -2 -1 -2 -3 0 -0 2 0 0 -1 -2 -1 -1 0 0 2 -0 4 5 5 -0 6 4 4 0 2 -1 3 5 7 -0 7 -2
1 -1 -1 -1 -5 -0 5 -1 -7 -1 -3 -4 -0 -1 -2 -1 -1 -3 -2 -0 -2 -1 -1 -1 1 -0 -0 -1 -1 -1 -1 0 1 2 3 4 -0 5 12 1 4 1 2 1 2 3 2 3 2
1 -1 1 -1 0 4 1 -6 -8 -1 -4 -2 -0 1 -1 -3 -1 -2 -3 -1 1 -0 -1 -1 -1 -3 -1 0 -1 -0 1 1 -1 -0 -0 3 4 7 6 1 2 5 3 8 1 3 4 5 4
-0 2 1 -2 -1 2 -3 -1 1 -3 -3 1 -0 0 -1 -0 -1 -2 0 0 0 -2 -4 -2 -2 -3 -2 -7 -3 -2 -2 -0 2 2 3 5 5 8 6 1 6 2 3 4 6 2 4 6 3
0 -1 -0 3 2 -1 0 0 -1 -1 2 -0 0 -0 -2 -2 -3 -0 -1 0 -2 -2 -1 -3 -4 -5 -7 -4 -2 -3 -2 -1 -1 -1 -1 1 2 3 7 3 4 6 5 -0 2 2 6 5 4
-2 -0 -1 -2 -2 0 2 -2 1 1 -0 1 1 -3 -1 0 -2 -2 -1 -3 -1 -4 -3 -2 -3 -3 -2 -0 -3 1 -2 -4 -4 -3 1 3 5 3 2 2 1 5 1 3 0 -0 0 1 4
1 -1 -1 -1 2 3 1 1 2 -1 3 1 -2 0 -0 -2 -1 -1 -3 -2 -1 -1 -1 -4 -3 -2 -2 -2 -1 -2 -2 -3 -4 2 1 4 5 4 1 4 1 -0 4 6 5 1 1 -1 -3
Height
5819 5824 5829 5834 5841 5843 5848 5852 5854 5856 5859 5862 5865 5867 5871 5873 5875 5878 5879 5879 5880 5881 5882 5883 5884 5884 5885 5885 5886 5886 5887 5887 5887 5886 5886 5885 5885 5884 5884 5883 5882 5881 5881 5879 5879 5878 5878 5877 5876
5813 5818 5824 5828 5833 5839 5845 5847 5848 5852 5855 5858 5861 5864 5867 5869 5871 5873 5876 5876 5878 5879 5879 5880 5882 5883 5883 5884 5883 5884 5884 5884 5884 5884 5883 5882 5882 5881 5881 5880 5879 5879 5878 5877 5876 5875 5875 5874 5874
5806 5812 5817 5821 5827 5835 5840 5841 5843 5849 5851 5854 5858 5861 5864 5866 5868 5870 5873 5874 5874 5876 5877 5877 5878 5879 5880 5881 5880 5881 5881 5881 5880 5880 5880 5879 5879 5878 5877 5877 5876 5875 5875 5874 5873 5872 5871 5871 5870
5799 5804 5810 5815 5824 5831 5834 5834 5839 5844 5846 5850 5853 5856 5860 5862 5865 5867 5869 5871 5871 5872 5873 5874 5874 5875 5877 5877 5877 5877 5877 5877 5877 5877 5876 5875 5875 5875 5874 5873 5873 5873 5872 5871 5870 5869 5868 5867 5867
5792 5797 5802 5809 5820 5826 5827 5828 5833 5838 5841 5845 5848 5852 5855 5858 5861 5863 5865 5867 5868 5869 5870 5871 5871 5872 5873 5874 5874 5873 5874 5874 5874 5873 5872 5872 5871 5871 5870 5870 5870 5869 5868 5867 5866 5865 5865 5864 5863
5784 5790 5795 5805 5816 5820 5821 5823 5828 5833 5837 5840 5845 5848 5850 5855 5858 5859 5861 5863 5865 5865 5866 5867 5867 5868 5869 5870 5870 5870 5870 5870 5870 5869 5869 5869 5868 5868 5867 5867 5866 5865 5865 5864 5863 5862 5861 5860 5860
5777 5784 5791 5801 5810 5814 5816 5818 5824 5827 5831 5835 5841 5844 5847 5851 5853 5855 5857 5859 5860 5861 5862 5862 5863 5864 5864 5865 5866 5866 5866 5866 5865 5865 5865 5865 5865 5865 5864 5863 5862 5861 5860 5859 5859 5858 5857 5857 5856
5771 5777 5782 5793 5803 5810 5810 5813 5818 5821 5825 5832 5837 5839 5842 5846 5848 5851 5853 5855 5856 5856 5856 5857 5859 5860 5861 5861 5862 5861 5861 5861 5861 5861 5861 5861 5861 5861 5860 5859 5858 5857 5856 5855 5855 5854 5854 5854 5853
5763 5769 5775 5789 5798 5803 5806 5807 5812 5817 5821 5826 5832 5835 5839 5842 5843 5845 5847 5849 5850 5852 5852 5853 5854 5856 5857 5858 5857 5857 5857 5857 5857 5857 5858 5857 5856 5856 5855 5855 5854 5854 5853 5852 5851 5850 5850 5849 5849
5754 5763 5774 5782 5790 5795 5799 5802 5807 5812 5816 5821 5826 5829 5833 5836 5837 5839 5842 5844 5846 5848 5848 5850 5851 5851 5852 5852 5852 5853 5852 5852 5853 5853 5853 5853 5851 5851 5850 5850 5849 5849 5848 5847 5846 5846 5845 5845 5844
5750 5760 5766 5775 5782 5787 5792 5795 5800 5805 5810 5814 5819 5823 5827 5830 5832 5833 5836 5839 5841 5844 5845 5845 5846 5847 5848 5847 5847 5847 5847 5847 5848 5848 5847 5847 5847 5846 5845 5845 5844 5844 5843 5843 5842 5841 5840 5839 5839
5745 5752 5759 5767 5774 5781 5786 5790 5796 5800 5803 5808 5812 5817 5821 5824 5826 5827 5830 5833 5837 5838 5839 5840 5841 5842 5842 5842 5842 5842 5843 5842 5842 5842 5842 5842 5842 5841 5840 5840 5839 5838 5838 5838 5837 5836 5835 5834 5834
5738 5745 5752 5759 5767 5774 5780 5784 5789 5795 5797 5802 5807 5811 5815 5818 5820 5822 5824 5828 5830 5832 5833 5835 5835 5836 5836 5836 5837 5837 5837 5837 5836 5836 5836 5836 5836 5836 5835 5835 5834 5833 5833 5833 5831 5830 5830 5829 5828
5731 5738 5746 5751 5759 5767 5773 5778 5783 5790 5790 5795 5799 5803 5808 5811 5814 5817 5820 5823 5825 5826 5828 5829 5830 5830 5830 5830 5831 5832 5832 5831 5830 5830 5831 5830 5831 5831 5830 5829 5829 5828 5827 5826 5826 5825 5824 5824 5822
5722 5731 5739 5746 5753 5760 5767 5773 5780 5781 5784 5789 5793 5797 5800 5806 5809 5813 5815 5819 5820 5822 5823 5824 5822 5822 5823 5824 5825 5825 5825 5825 5824 5824 5824 5825 5825 5825 5825 5824 5823 5822 5821 5820 5819 5819 5818 5818 5817
5713 5722 5732 5741 5747 5755 5762 5770 5772 5775 5779 5782 5786 5790 5794 5799 5803 5807 5810 5812 5813 5814 5815 5814 5816 5817 5818 5818 5819 5819 5819 5818 5817 5817 5818 5818 5819 5819 5819 5818 5817 5815 5814 5813 5813 5812 5811 5812 5811
5706 5719 5728 5736 5742 5748 5756 5762 5765 5768 5772 5775 5779 5783 5787 5792 5795 5799 5801 5802 5804 5806 5807 5810 5811 5811 5811 5812 5812 5811 5811 5812 5812 5811 5812 5811 5811 5811 5811 5811 5810 5810 5809 5807 5806 5806 5805 5805 5805
5709 5716 5724 5731 5738 5743 5749 5754 5759 5761 5765 5768 5772 5776 5779 5784 5786 5789 5794 5797 5800 5802 5804 5805 5805 5805 5805 5804 5804 5804 5803 5804 5804 5804 5804 5802 5802 5802 5802 5802 5801 5801 5801 5801 5799 5797 5797 5798 5797
5703 5710 5718 5724 5731 5737 5743 5748 5753 5755 5758 5761 5765 5769 5773 5776 5780 5783 5787 5791 5794 5795 5796 5797 5797 5798 5797 5796 5796 5796 5796 5794 5793 5793 5794 5792 5793 5793 5793 5793 5793 5791 5791 5791 5790 5789 5790 5789 5789
5698 5705 5712 5719 5726 5732 5738 5743 5746 5747 5751 5756 5760 5763 5766 5769 5773 5776 5779 5782 5784 5786 5788 5788 5789 5789 5788 5788 5788 5787 5786 5786 5785 5783 5784 5784 5784 5783 5783 5783 5782 5782 5780 5780 5780 5781 5781 5781 5781
5694 5701 5708 5715 5721 5727 5733 5734 5738 5742 5746 5750 5754 5757 5761 5764 5766 5769 5771 5772 5774 5776 5777 5778 5779 5778 5778 5778 5778 5778 5776 5777 5776 5775 5774 5772 5770 5769 5770 5771 5770 5770 5771 5770 5770 5770 5771 5771 5771
5690 5696 5704 5710 5716 5721 5726 5727 5732 5736 5740 5744 5748 5752 5754 5757 5759 5760 5762 5764 5765 5766 5767 5768 5768 5768 5768 5767 5767 5766 5766 5766 5766 5763 5762 5759 5758 5757 5757 5759 5759 5759 5760 5760 5761 5760 5760 5759 5761
5686 5692 5698 5704 5710 5715 5720 5723 5726 5729 5734 5738 5742 5745 5747 5748 5750 5752 5754 5755 5757 5758 5758 5758 5757 5757 5756 5756 5755 5754 5754 5754 5753 5751 5749 5747 5746 5746 5744 5744 5745 5745 5747 5748 5747 5748 5748 5748 5748
5682 5688 5694 5699 5704 5709 5713 5717 5719 5723 5727 5731 5734 5736 5739 5741 5742 5744 5746 5747 5747 5747 5747 5747 5746 5746 5745 5744 5743 5742 5741 5740 5739 5738 5737 5735 5734 5733 5732 5731 5730 5730 5732 5733 5734 5736 5736 5738 5737
5677 5682 5688 5693 5697 5702 5706 5710 5712 5717 5720 5723 5726 5728 5731 5732 5735 5737 5737 5738 5738 5737 5737 5737 5736 5735 5734 5732 5731 5731 5729 5727 5726 5724 5723 5720 5719 5719 5719 5718 5717 5717 5718 5718 5720 5721 5723 5724 5725
5673 5678 5683 5686 5691 5696 5699 5703 5706 5710 5713 5715 5717 5720 5723 5725 5726 5728 5729 5729 5729 5728 5728 5728 5726 5725 5724 5722 5720 5718 5715 5713 5710 5708 5706 5705 5703 5703 5701 5701 5701 5703 5704 5706 5707 5709 5710 5711 5711
5671 5676 5680 5683 5687 5691 5695 5698 5701 5704 5707 5709 5711 5713 5715 5717 5718 5719 5720 5720 5720 5720 5719 5718 5717 5715 5713 5711 5708 5705 5701 5698 5694 5690 5686 5683 5681 5681 5681 5683 5685 5686 5688 5690 5693 5696 5697 5698 5700
5669 5674 5678 5680 5683 5686 5690 5692 5695 5698 5701 5703 5705 5706 5708 5709 5711 5711 5712 5713 5713 5712 5712 5710 5708 5706 5703 5700 5696 5691 5687 5682 5677 5671 5667 5662 5659 5657 5657 5659 5664 5668 5671 5675 5677 5681 5683 5686 5687
5667 5669 5673 5676 5679 5682 5685 5688 5690 5693 5695 5697 5699 5700 5701 5703 5703 5704 5705 5705 5705 5704 5703 5702 5700 5697 5693 5689 5684 5679 5674 5668 5662 5654 5647 5641 5637 5633 5633 5635 5639 5645 5651 5656 5660 5666 5669 5671 5674
5664 5667 5671 5673 5677 5679 5681 5685 5685 5687 5690 5693 5693 5695 5696 5697 5697 5698 5698 5698 5697 5696 5694 5693 5690 5686 5682 5677 5673 5668 5662 5654 5645 5635 5628 5621 5617 5616 5616 5618 5621 5625 5631 5638 5644 5649 5653 5658 5661